date,time,SUV Intensity [MED/Hr],UV Index,Daily total [MED],Since Last [MED]
20/11/2022,00:02:51,0.000,0.0,0.0,0.0
20/11/2022,00:03:52,-0.001,0.0,0.0,0.0
20/11/2022,00:04:52,-0.000,0.0,0.0,0.0
20/11/2022,00:05:52,0.000,0.0,0.0,0.0
20/11/2022,00:06:52,0.000,0.0,0.0,0.0
20/11/2022,00:07:52,0.000,0.0,0.0,0.0
20/11/2022,00:08:52,0.000,0.0,0.0,0.0
20/11/2022,00:09:51,0.000,0.0,0.0,0.0
20/11/2022,00:10:52,0.000,0.0,0.0,0.0
20/11/2022,00:11:52,0.000,0.0,0.0,0.0
20/11/2022,00:12:52,-0.001,0.0,0.0,0.0
20/11/2022,00:13:51,0.000,0.0,0.0,0.0
20/11/2022,00:14:52,0.000,0.0,0.0,0.0
20/11/2022,00:15:52,0.000,0.0,0.0,0.0
20/11/2022,00:16:52,-0.000,0.0,0.0,0.0
20/11/2022,00:17:52,0.000,0.0,0.0,0.0
20/11/2022,00:18:52,0.000,0.0,0.0,0.0
20/11/2022,00:19:52,-0.000,0.0,0.0,0.0
20/11/2022,00:20:52,0.000,0.0,0.0,0.0
20/11/2022,00:21:52,-0.001,0.0,0.0,0.0
20/11/2022,00:22:52,0.000,0.0,0.0,0.0
20/11/2022,00:23:52,-0.000,0.0,0.0,0.0
20/11/2022,00:24:52,0.000,0.0,0.0,0.0
20/11/2022,00:25:52,0.000,0.0,0.0,0.0
20/11/2022,00:26:52,0.000,0.0,0.0,0.0
20/11/2022,00:27:52,0.000,0.0,0.0,0.0
20/11/2022,00:28:52,0.000,0.0,0.0,0.0
20/11/2022,00:29:52,-0.000,0.0,0.0,0.0
20/11/2022,00:30:52,0.000,0.0,0.0,0.0
20/11/2022,00:31:52,0.000,0.0,0.0,0.0
20/11/2022,00:32:52,0.000,0.0,0.0,0.0
20/11/2022,00:33:52,-0.000,0.0,0.0,0.0
20/11/2022,00:34:52,-0.000,0.0,0.0,0.0
20/11/2022,00:35:52,0.000,0.0,0.0,0.0
20/11/2022,00:36:52,0.000,0.0,0.0,0.0
20/11/2022,00:37:52,0.000,0.0,0.0,0.0
20/11/2022,00:38:52,0.000,0.0,0.0,0.0
20/11/2022,00:39:52,0.000,0.0,0.0,0.0
20/11/2022,00:40:52,0.000,0.0,0.0,0.0
20/11/2022,00:41:52,0.000,0.0,0.0,0.0
20/11/2022,00:42:52,0.000,0.0,0.0,0.0
20/11/2022,00:43:52,0.000,0.0,0.0,0.0
20/11/2022,00:44:53,0.000,0.0,0.0,0.0
20/11/2022,00:45:52,0.000,0.0,0.0,0.0
20/11/2022,00:46:52,0.000,0.0,0.0,0.0
20/11/2022,00:47:52,0.000,0.0,0.0,0.0
20/11/2022,00:48:52,0.000,0.0,0.0,0.0
20/11/2022,00:49:52,0.000,0.0,0.0,0.0
20/11/2022,00:50:52,0.000,0.0,0.0,0.0
20/11/2022,00:51:52,0.000,0.0,0.0,0.0
20/11/2022,00:52:52,0.000,0.0,0.0,0.0
20/11/2022,00:53:54,0.000,0.0,0.0,0.0
20/11/2022,00:54:52,0.000,0.0,0.0,0.0
20/11/2022,00:55:52,0.000,0.0,0.0,0.0
20/11/2022,00:56:52,0.000,0.0,0.0,0.0
20/11/2022,00:57:52,0.000,0.0,0.0,0.0
20/11/2022,00:58:52,0.000,0.0,0.0,0.0
20/11/2022,00:59:52,0.000,0.0,0.0,0.0
20/11/2022,01:00:52,0.000,0.0,0.0,0.0
20/11/2022,01:01:52,0.000,0.0,0.0,0.0
20/11/2022,01:02:52,0.000,0.0,0.0,0.0
20/11/2022,01:03:52,0.000,0.0,0.0,0.0
20/11/2022,01:04:52,0.000,0.0,0.0,0.0
20/11/2022,01:05:52,0.000,0.0,0.0,0.0
20/11/2022,01:06:52,0.000,0.0,0.0,0.0
20/11/2022,01:07:52,0.000,0.0,0.0,0.0
20/11/2022,01:08:52,0.000,0.0,0.0,0.0
20/11/2022,01:09:52,0.000,0.0,0.0,0.0
20/11/2022,01:10:52,0.000,0.0,0.0,0.0
20/11/2022,01:11:52,0.000,0.0,0.0,0.0
20/11/2022,01:12:52,-0.001,0.0,0.0,0.0
20/11/2022,01:13:52,0.000,0.0,0.0,0.0
20/11/2022,01:14:52,0.000,0.0,0.0,0.0
20/11/2022,01:15:52,0.000,0.0,0.0,0.0
20/11/2022,01:16:52,0.000,0.0,0.0,0.0
20/11/2022,01:17:52,0.000,0.0,0.0,0.0
20/11/2022,01:18:52,0.000,0.0,0.0,0.0
20/11/2022,01:19:52,0.000,0.0,0.0,0.0
20/11/2022,01:20:52,0.000,0.0,0.0,0.0
20/11/2022,01:21:52,0.000,0.0,0.0,0.0
20/11/2022,01:22:52,0.000,0.0,0.0,0.0
20/11/2022,01:23:52,0.000,0.0,0.0,0.0
20/11/2022,01:24:52,0.000,0.0,0.0,0.0
20/11/2022,01:25:52,0.000,0.0,0.0,0.0
20/11/2022,01:26:52,0.000,0.0,0.0,0.0
20/11/2022,01:27:52,0.000,0.0,0.0,0.0
20/11/2022,01:28:52,0.000,0.0,0.0,0.0
20/11/2022,01:29:52,-0.000,0.0,0.0,0.0
20/11/2022,01:30:52,0.000,0.0,0.0,0.0
20/11/2022,01:31:52,0.000,0.0,0.0,0.0
20/11/2022,01:32:52,0.000,0.0,0.0,0.0
20/11/2022,01:33:52,0.000,0.0,0.0,0.0
20/11/2022,01:34:52,0.000,0.0,0.0,0.0
20/11/2022,01:35:52,0.000,0.0,0.0,0.0
20/11/2022,01:36:52,0.000,0.0,0.0,0.0
20/11/2022,01:37:52,0.001,0.0,0.0,0.0
20/11/2022,01:38:52,0.000,0.0,0.0,0.0
20/11/2022,01:39:52,0.000,0.0,0.0,0.0
20/11/2022,01:40:51,0.000,0.0,0.0,0.0
20/11/2022,01:42:14,-0.000,0.0,0.0,0.0
20/11/2022,01:42:52,0.000,0.0,0.0,0.0
20/11/2022,01:43:52,0.000,0.0,0.0,0.0
20/11/2022,01:44:53,0.001,0.0,0.0,0.0
20/11/2022,01:45:52,0.000,0.0,0.0,0.0
20/11/2022,01:46:52,0.000,0.0,0.0,0.0
20/11/2022,01:47:52,0.000,0.0,0.0,0.0
20/11/2022,01:48:52,0.000,0.0,0.0,0.0
20/11/2022,01:49:52,0.000,0.0,0.0,0.0
20/11/2022,01:50:52,0.000,0.0,0.0,0.0
20/11/2022,01:51:52,0.000,0.0,0.0,0.0
20/11/2022,01:52:52,0.000,0.0,0.0,0.0
20/11/2022,01:53:52,0.000,0.0,0.0,0.0
20/11/2022,01:54:52,0.000,0.0,0.0,0.0
20/11/2022,01:55:52,0.000,0.0,0.0,0.0
20/11/2022,01:56:52,0.000,0.0,0.0,0.0
20/11/2022,01:57:52,0.000,0.0,0.0,0.0
20/11/2022,01:58:52,0.000,0.0,0.0,0.0
20/11/2022,01:59:52,0.000,0.0,0.0,0.0
20/11/2022,02:00:52,0.000,0.0,0.0,0.0
20/11/2022,02:01:53,0.000,0.0,0.0,0.0
20/11/2022,02:02:53,0.000,0.0,0.0,0.0
20/11/2022,02:03:52,0.000,0.0,0.0,0.0
20/11/2022,02:04:52,0.000,0.0,0.0,0.0
20/11/2022,02:05:52,0.000,0.0,0.0,0.0
20/11/2022,02:06:53,0.000,0.0,0.0,0.0
20/11/2022,02:07:52,0.000,0.0,0.0,0.0
20/11/2022,02:08:52,0.000,0.0,0.0,0.0
20/11/2022,02:09:52,0.000,0.0,0.0,0.0
20/11/2022,02:10:52,0.000,0.0,0.0,0.0
20/11/2022,02:11:52,0.000,0.0,0.0,0.0
20/11/2022,02:12:52,0.000,0.0,0.0,0.0
20/11/2022,02:13:52,0.000,0.0,0.0,0.0
20/11/2022,02:14:52,0.000,0.0,0.0,0.0
20/11/2022,02:15:52,0.000,0.0,0.0,0.0
20/11/2022,02:16:53,0.000,0.0,0.0,0.0
20/11/2022,02:17:52,0.000,0.0,0.0,0.0
20/11/2022,02:18:53,0.000,0.0,0.0,0.0
20/11/2022,02:19:52,0.000,0.0,0.0,0.0
20/11/2022,02:20:52,0.000,0.0,0.0,0.0
20/11/2022,02:21:53,0.000,0.0,0.0,0.0
20/11/2022,02:22:52,0.000,0.0,0.0,0.0
20/11/2022,02:23:52,0.000,0.0,0.0,0.0
20/11/2022,02:24:52,0.000,0.0,0.0,0.0
20/11/2022,02:25:52,0.000,0.0,0.0,0.0
20/11/2022,02:26:52,0.000,0.0,0.0,0.0
20/11/2022,02:27:52,0.000,0.0,0.0,0.0
20/11/2022,02:28:52,0.000,0.0,0.0,0.0
20/11/2022,02:29:52,0.000,0.0,0.0,0.0
20/11/2022,02:30:52,0.000,0.0,0.0,0.0
20/11/2022,02:31:52,0.000,0.0,0.0,0.0
20/11/2022,02:32:52,0.000,0.0,0.0,0.0
20/11/2022,02:33:52,0.000,0.0,0.0,0.0
20/11/2022,02:34:52,0.000,0.0,0.0,0.0
20/11/2022,02:35:52,0.000,0.0,0.0,0.0
20/11/2022,02:36:52,0.000,0.0,0.0,0.0
20/11/2022,02:37:53,0.000,0.0,0.0,0.0
20/11/2022,02:38:52,0.000,0.0,0.0,0.0
20/11/2022,02:39:52,0.000,0.0,0.0,0.0
20/11/2022,02:40:52,0.000,0.0,0.0,0.0
20/11/2022,02:41:52,0.000,0.0,0.0,0.0
20/11/2022,02:42:52,0.000,0.0,0.0,0.0
20/11/2022,02:43:52,0.000,0.0,0.0,0.0
20/11/2022,02:44:52,0.000,0.0,0.0,0.0
20/11/2022,02:45:52,0.000,0.0,0.0,0.0
20/11/2022,02:46:53,0.000,0.0,0.0,0.0
20/11/2022,02:47:52,0.000,0.0,0.0,0.0
20/11/2022,02:48:53,0.000,0.0,0.0,0.0
20/11/2022,02:49:52,0.000,0.0,0.0,0.0
20/11/2022,02:50:52,0.000,0.0,0.0,0.0
20/11/2022,02:51:52,0.000,0.0,0.0,0.0
20/11/2022,02:52:53,0.000,0.0,0.0,0.0
20/11/2022,02:53:52,0.000,0.0,0.0,0.0
20/11/2022,02:54:52,0.001,0.0,0.0,0.0
20/11/2022,02:55:52,0.000,0.0,0.0,0.0
20/11/2022,02:56:52,0.000,0.0,0.0,0.0
20/11/2022,02:57:50,0.000,0.0,0.0,0.0
20/11/2022,02:58:52,0.000,0.0,0.0,0.0
20/11/2022,02:59:52,0.000,0.0,0.0,0.0
20/11/2022,03:00:52,0.000,0.0,0.0,0.0
20/11/2022,03:01:52,0.000,0.0,0.0,0.0
20/11/2022,03:02:52,0.000,0.0,0.0,0.0
20/11/2022,03:03:52,-0.000,0.0,0.0,0.0
20/11/2022,03:04:52,0.000,0.0,0.0,0.0
20/11/2022,03:05:52,0.000,0.0,0.0,0.0
20/11/2022,03:06:52,0.000,0.0,0.0,0.0
20/11/2022,03:07:52,0.000,0.0,0.0,0.0
20/11/2022,03:08:52,0.000,0.0,0.0,0.0
20/11/2022,03:09:52,0.000,0.0,0.0,0.0
20/11/2022,03:10:52,0.000,0.0,0.0,0.0
20/11/2022,03:11:52,-0.000,0.0,0.0,0.0
20/11/2022,03:12:52,0.000,0.0,0.0,0.0
20/11/2022,03:13:52,0.000,0.0,0.0,0.0
20/11/2022,03:14:52,0.000,0.0,0.0,0.0
20/11/2022,03:15:53,0.000,0.0,0.0,0.0
20/11/2022,03:16:52,0.000,0.0,0.0,0.0
20/11/2022,03:17:52,0.000,0.0,0.0,0.0
20/11/2022,03:18:53,0.000,0.0,0.0,0.0
20/11/2022,03:19:52,0.000,0.0,0.0,0.0
20/11/2022,03:20:53,0.000,0.0,0.0,0.0
20/11/2022,03:21:52,0.000,0.0,0.0,0.0
20/11/2022,03:22:52,0.000,0.0,0.0,0.0
20/11/2022,03:23:52,0.000,0.0,0.0,0.0
20/11/2022,03:24:52,0.000,0.0,0.0,0.0
20/11/2022,03:25:52,0.000,0.0,0.0,0.0
20/11/2022,03:26:53,0.000,0.0,0.0,0.0
20/11/2022,03:27:52,0.000,0.0,0.0,0.0
20/11/2022,03:28:53,0.000,0.0,0.0,0.0
20/11/2022,03:29:52,0.000,0.0,0.0,0.0
20/11/2022,03:30:52,0.000,0.0,0.0,0.0
20/11/2022,03:31:52,0.000,0.0,0.0,0.0
20/11/2022,03:32:53,0.000,0.0,0.0,0.0
20/11/2022,03:33:52,0.000,0.0,0.0,0.0
20/11/2022,03:34:52,0.000,0.0,0.0,0.0
20/11/2022,03:35:53,0.000,0.0,0.0,0.0
20/11/2022,03:36:52,0.000,0.0,0.0,0.0
20/11/2022,03:37:52,0.000,0.0,0.0,0.0
20/11/2022,03:38:53,0.000,0.0,0.0,0.0
20/11/2022,03:39:52,0.000,0.0,0.0,0.0
20/11/2022,03:40:52,0.000,0.0,0.0,0.0
20/11/2022,03:41:53,0.000,0.0,0.0,0.0
20/11/2022,03:42:52,0.000,0.0,0.0,0.0
20/11/2022,03:43:52,0.000,0.0,0.0,0.0
20/11/2022,03:44:52,0.000,0.0,0.0,0.0
20/11/2022,03:45:52,0.000,0.0,0.0,0.0
20/11/2022,03:46:52,0.000,0.0,0.0,0.0
20/11/2022,03:47:52,0.000,0.0,0.0,0.0
20/11/2022,03:48:52,-0.001,0.0,0.0,0.0
20/11/2022,03:49:52,-0.001,0.0,0.0,0.0
20/11/2022,03:50:52,0.000,0.0,0.0,0.0
20/11/2022,03:51:52,0.000,0.0,0.0,0.0
20/11/2022,03:52:52,0.000,0.0,0.0,0.0
20/11/2022,03:53:52,0.000,0.0,0.0,0.0
20/11/2022,03:54:54,0.000,0.0,0.0,0.0
20/11/2022,03:55:52,0.000,0.0,0.0,0.0
20/11/2022,03:56:53,0.000,0.0,0.0,0.0
20/11/2022,03:57:52,0.000,0.0,0.0,0.0
20/11/2022,03:58:52,0.000,0.0,0.0,0.0
20/11/2022,03:59:53,0.000,0.0,0.0,0.0
20/11/2022,04:00:52,0.000,0.0,0.0,0.0
20/11/2022,04:01:52,0.000,0.0,0.0,0.0
20/11/2022,04:02:53,0.000,0.0,0.0,0.0
20/11/2022,04:03:52,0.000,0.0,0.0,0.0
20/11/2022,04:04:52,0.000,0.0,0.0,0.0
20/11/2022,04:05:53,0.000,0.0,0.0,0.0
20/11/2022,04:06:52,0.000,0.0,0.0,0.0
20/11/2022,04:08:22,0.000,0.0,0.0,0.0
20/11/2022,04:09:53,0.000,0.0,0.0,0.0
20/11/2022,04:10:53,0.000,0.0,0.0,0.0
20/11/2022,04:11:53,0.000,0.0,0.0,0.0
20/11/2022,04:12:52,0.000,0.0,0.0,0.0
20/11/2022,04:13:52,0.000,0.0,0.0,0.0
20/11/2022,04:14:53,0.000,0.0,0.0,0.0
20/11/2022,04:15:52,0.000,0.0,0.0,0.0
20/11/2022,04:16:52,0.000,0.0,0.0,0.0
20/11/2022,04:17:53,0.000,0.0,0.0,0.0
20/11/2022,04:18:52,0.000,0.0,0.0,0.0
20/11/2022,04:19:52,0.000,0.0,0.0,0.0
20/11/2022,04:20:53,0.000,0.0,0.0,0.0
20/11/2022,04:21:52,0.000,0.0,0.0,0.0
20/11/2022,04:22:52,0.000,0.0,0.0,0.0
20/11/2022,04:23:53,-0.000,0.0,0.0,0.0
20/11/2022,04:24:53,0.000,0.0,0.0,0.0
20/11/2022,04:25:53,0.000,0.0,0.0,0.0
20/11/2022,04:26:53,0.000,0.0,0.0,0.0
20/11/2022,04:27:52,0.000,0.0,0.0,0.0
20/11/2022,04:28:52,0.000,0.0,0.0,0.0
20/11/2022,04:29:52,0.000,0.0,0.0,0.0
20/11/2022,04:30:53,0.000,0.0,0.0,0.0
20/11/2022,04:31:52,0.000,0.0,0.0,0.0
20/11/2022,04:32:52,-0.000,0.0,0.0,0.0
20/11/2022,04:33:52,0.000,0.0,0.0,0.0
20/11/2022,04:34:52,0.000,0.0,0.0,0.0
20/11/2022,04:35:52,0.000,0.0,0.0,0.0
20/11/2022,04:36:52,0.000,0.0,0.0,0.0
20/11/2022,04:37:52,0.000,0.0,0.0,0.0
20/11/2022,04:38:52,0.000,0.0,0.0,0.0
20/11/2022,04:39:53,-0.000,0.0,0.0,0.0
20/11/2022,04:40:52,0.000,0.0,0.0,0.0
20/11/2022,04:41:52,0.000,0.0,0.0,0.0
20/11/2022,04:42:53,0.000,0.0,0.0,0.0
20/11/2022,04:43:52,-0.000,0.0,0.0,0.0
20/11/2022,04:44:52,0.000,0.0,0.0,0.0
20/11/2022,04:45:53,0.000,0.0,0.0,0.0
20/11/2022,04:46:52,0.000,0.0,0.0,0.0
20/11/2022,04:47:52,0.000,0.0,0.0,0.0
20/11/2022,04:48:52,0.000,0.0,0.0,0.0
20/11/2022,04:49:53,0.000,0.0,0.0,0.0
20/11/2022,04:50:52,-0.001,0.0,0.0,0.0
20/11/2022,04:51:53,-0.000,0.0,0.0,0.0
20/11/2022,04:52:52,0.000,0.0,0.0,0.0
20/11/2022,04:53:53,-0.000,0.0,0.0,0.0
20/11/2022,04:54:52,0.000,0.0,0.0,0.0
20/11/2022,04:55:52,0.000,0.0,0.0,0.0
20/11/2022,04:56:52,0.000,0.0,0.0,0.0
20/11/2022,04:57:52,0.000,0.0,0.0,0.0
20/11/2022,04:58:53,0.000,0.0,0.0,0.0
20/11/2022,04:59:52,0.000,0.0,0.0,0.0
20/11/2022,05:00:53,0.000,0.0,0.0,0.0
20/11/2022,05:01:52,0.000,0.0,0.0,0.0
20/11/2022,05:02:52,0.000,0.0,0.0,0.0
20/11/2022,05:03:53,-0.001,0.0,0.0,0.0
20/11/2022,05:04:54,-0.000,0.0,0.0,0.0
20/11/2022,05:05:52,0.000,0.0,0.0,0.0
20/11/2022,05:06:53,0.000,0.0,0.0,0.0
20/11/2022,05:07:53,0.000,0.0,0.0,0.0
20/11/2022,05:08:52,0.000,0.0,0.0,0.0
20/11/2022,05:09:52,0.000,0.0,0.0,0.0
20/11/2022,05:10:53,0.000,0.0,0.0,0.0
20/11/2022,05:11:52,0.000,0.0,0.0,0.0
20/11/2022,05:12:52,0.000,0.0,0.0,0.0
20/11/2022,05:13:53,0.000,0.0,0.0,0.0
20/11/2022,05:14:52,0.000,0.0,0.0,0.0
20/11/2022,05:15:52,-0.000,0.0,0.0,0.0
20/11/2022,05:16:52,0.000,0.0,0.0,0.0
20/11/2022,05:17:52,0.000,0.0,0.0,0.0
20/11/2022,05:18:53,0.000,0.0,0.0,0.0
20/11/2022,05:19:53,0.000,0.0,0.0,0.0
20/11/2022,05:20:53,0.000,0.0,0.0,0.0
20/11/2022,05:21:53,0.000,0.0,0.0,0.0
20/11/2022,05:22:52,-0.000,0.0,0.0,0.0
20/11/2022,05:23:53,0.000,0.0,0.0,0.0
20/11/2022,05:24:53,0.000,0.0,0.0,0.0
20/11/2022,05:25:53,0.000,0.0,0.0,0.0
20/11/2022,05:26:52,0.000,0.0,0.0,0.0
20/11/2022,05:27:52,-0.000,0.0,0.0,0.0
20/11/2022,05:28:53,-0.000,0.0,0.0,0.0
20/11/2022,05:29:52,0.000,0.0,0.0,0.0
20/11/2022,05:30:53,-0.000,0.0,0.0,0.0
20/11/2022,05:31:52,-0.001,0.0,0.0,0.0
20/11/2022,05:32:53,-0.000,0.0,0.0,0.0
20/11/2022,05:33:52,-0.000,0.0,0.0,0.0
20/11/2022,05:34:53,-0.000,0.0,0.0,0.0
20/11/2022,05:35:52,-0.000,0.0,0.0,0.0
20/11/2022,05:36:53,-0.000,0.0,0.0,0.0
20/11/2022,05:37:52,-0.000,0.0,0.0,0.0
20/11/2022,05:38:52,-0.000,0.0,0.0,0.0
20/11/2022,05:39:52,-0.000,0.0,0.0,0.0
20/11/2022,05:40:53,-0.001,0.0,0.0,0.0
20/11/2022,05:41:52,-0.000,0.0,0.0,0.0
20/11/2022,05:42:52,-0.000,0.0,0.0,0.0
20/11/2022,05:43:52,-0.001,0.0,0.0,0.0
20/11/2022,05:44:53,0.000,0.0,0.0,0.0
20/11/2022,05:45:52,-0.000,0.0,0.0,0.0
20/11/2022,05:46:52,-0.000,0.0,0.0,0.0
20/11/2022,05:47:53,0.000,0.0,0.0,0.0
20/11/2022,05:48:52,-0.000,0.0,0.0,0.0
20/11/2022,05:49:51,0.000,0.0,0.0,0.0
20/11/2022,05:51:15,-0.000,0.0,0.0,0.0
20/11/2022,05:51:52,0.000,0.0,0.0,0.0
20/11/2022,05:52:52,-0.000,0.0,0.0,0.0
20/11/2022,05:53:53,-0.001,0.0,0.0,0.0
20/11/2022,05:54:52,0.000,0.0,0.0,0.0
20/11/2022,05:55:52,-0.000,0.0,0.0,0.0
20/11/2022,05:56:52,-0.000,0.0,0.0,0.0
20/11/2022,05:57:52,0.000,0.0,0.0,0.0
20/11/2022,05:58:53,-0.000,0.0,0.0,0.0
20/11/2022,05:59:53,0.000,0.0,0.0,0.0
20/11/2022,06:00:53,-0.000,0.0,0.0,0.0
20/11/2022,06:01:52,-0.000,0.0,0.0,0.0
20/11/2022,06:02:52,0.001,0.0,0.0,0.0
20/11/2022,06:03:53,-0.000,0.0,0.0,0.0
20/11/2022,06:04:52,0.000,0.0,0.0,0.0
20/11/2022,06:05:52,-0.000,0.0,0.0,0.0
20/11/2022,06:06:54,-0.000,0.0,0.0,0.0
20/11/2022,06:07:50,-0.000,0.0,0.0,0.0
20/11/2022,06:08:53,-0.000,0.0,0.0,0.0
20/11/2022,06:09:53,-0.000,0.0,0.0,0.0
20/11/2022,06:10:52,0.000,0.0,0.0,0.0
20/11/2022,06:11:52,0.000,0.0,0.0,0.0
20/11/2022,06:12:53,-0.000,0.0,0.0,0.0
20/11/2022,06:13:53,-0.000,0.0,0.0,0.0
20/11/2022,06:14:52,-0.001,0.0,0.0,0.0
20/11/2022,06:15:53,-0.000,0.0,0.0,0.0
20/11/2022,06:16:52,-0.000,0.0,0.0,0.0
20/11/2022,06:17:53,0.000,0.0,0.0,0.0
20/11/2022,06:18:52,0.000,0.0,0.0,0.0
20/11/2022,06:19:52,0.000,0.0,0.0,0.0
20/11/2022,06:20:53,-0.000,0.0,0.0,0.0
20/11/2022,06:21:52,-0.000,0.0,0.0,0.0
20/11/2022,06:22:52,-0.000,0.0,0.0,0.0
20/11/2022,06:23:53,-0.000,0.0,0.0,0.0
20/11/2022,06:24:52,-0.000,0.0,0.0,0.0
20/11/2022,06:25:52,-0.000,0.0,0.0,0.0
20/11/2022,06:26:53,-0.000,0.0,0.0,0.0
20/11/2022,06:27:52,-0.000,0.0,0.0,0.0
20/11/2022,06:28:53,-0.000,0.0,0.0,0.0
20/11/2022,06:29:52,-0.001,0.0,0.0,0.0
20/11/2022,06:30:53,0.000,0.0,0.0,0.0
20/11/2022,06:31:56,-0.000,0.0,0.0,0.0
20/11/2022,06:32:53,-0.000,0.0,0.0,0.0
20/11/2022,06:33:52,-0.000,0.0,0.0,0.0
20/11/2022,06:34:53,-0.001,0.0,0.0,0.0
20/11/2022,06:35:52,0.000,0.0,0.0,0.0
20/11/2022,06:36:52,-0.000,0.0,0.0,0.0
20/11/2022,06:37:53,0.000,0.0,0.0,0.0
20/11/2022,06:38:52,-0.000,0.0,0.0,0.0
20/11/2022,06:39:52,-0.000,0.0,0.0,0.0
20/11/2022,06:40:52,0.000,0.0,0.0,0.0
20/11/2022,06:41:53,0.000,0.0,0.0,0.0
20/11/2022,06:42:53,-0.000,0.0,0.0,0.0
20/11/2022,06:43:53,-0.000,0.0,0.0,0.0
20/11/2022,06:44:52,-0.000,0.0,0.0,0.0
20/11/2022,06:45:52,0.000,0.0,0.0,0.0
20/11/2022,06:46:53,-0.000,0.0,0.0,0.0
20/11/2022,06:47:52,-0.000,0.0,0.0,0.0
20/11/2022,06:48:52,0.000,0.0,0.0,0.0
20/11/2022,06:49:52,-0.000,0.0,0.0,0.0
20/11/2022,06:50:52,0.000,0.0,0.0,0.0
20/11/2022,06:51:53,-0.000,0.0,0.0,0.0
20/11/2022,06:52:52,-0.000,0.0,0.0,0.0
20/11/2022,06:53:53,-0.001,0.0,0.0,0.0
20/11/2022,06:54:53,-0.000,0.0,0.0,0.0
20/11/2022,06:55:53,-0.000,0.0,0.0,0.0
20/11/2022,06:56:53,-0.000,0.0,0.0,0.0
20/11/2022,06:57:53,-0.000,0.0,0.0,0.0
20/11/2022,06:58:53,-0.000,0.0,0.0,0.0
20/11/2022,06:59:53,-0.000,0.0,0.0,0.0
20/11/2022,07:00:52,-0.000,0.0,0.0,0.0
20/11/2022,07:01:54,-0.000,0.0,0.0,0.0
20/11/2022,07:02:54,-0.000,0.0,0.0,0.0
20/11/2022,07:03:52,-0.000,0.0,0.0,0.0
20/11/2022,07:04:53,0.000,0.0,0.0,0.0
20/11/2022,07:05:52,-0.000,0.0,0.0,0.0
20/11/2022,07:06:52,-0.000,0.0,0.0,0.0
20/11/2022,07:07:52,0.000,0.0,0.0,0.0
20/11/2022,07:08:53,-0.000,0.0,0.0,0.0
20/11/2022,07:09:52,-0.000,0.0,0.0,0.0
20/11/2022,07:10:53,0.000,0.0,0.0,0.0
20/11/2022,07:11:52,-0.000,0.0,0.0,0.0
20/11/2022,07:12:52,0.000,0.0,0.0,0.0
20/11/2022,07:13:53,-0.000,0.0,0.0,0.0
20/11/2022,07:14:53,0.000,0.0,0.0,0.0
20/11/2022,07:15:53,0.000,0.0,0.0,0.0
20/11/2022,07:16:52,0.000,0.0,0.0,0.0
20/11/2022,07:17:53,-0.000,0.0,0.0,0.0
20/11/2022,07:18:53,0.000,0.0,0.0,0.0
20/11/2022,07:19:53,0.000,0.0,0.0,0.0
20/11/2022,07:20:52,0.000,0.0,0.0,0.0
20/11/2022,07:21:53,0.001,0.0,0.0,0.0
20/11/2022,07:22:52,0.001,0.0,0.0,0.0
20/11/2022,07:23:53,0.001,0.0,0.0,0.0
20/11/2022,07:24:53,0.000,0.0,0.0,0.0
20/11/2022,07:25:52,0.001,0.0,0.0,0.0
20/11/2022,07:26:53,0.001,0.0,0.0,0.0
20/11/2022,07:27:53,0.002,0.0,0.0,0.0
20/11/2022,07:28:53,0.001,0.0,0.0,0.0
20/11/2022,07:29:53,0.001,0.0,0.0,0.0
20/11/2022,07:30:53,0.001,0.0,0.0,0.0
20/11/2022,07:31:52,0.001,0.0,0.0,0.0
20/11/2022,07:32:53,0.002,0.0,0.0,0.0
20/11/2022,07:33:52,0.002,0.0,0.0,0.0
20/11/2022,07:34:52,0.002,0.0,0.0,0.0
20/11/2022,07:35:53,0.001,0.0,0.0,0.0
20/11/2022,07:36:53,0.004,0.0,0.0,0.0
20/11/2022,07:37:53,0.003,0.0,0.0,0.0
20/11/2022,07:38:52,0.002,0.0,0.0,0.0
20/11/2022,07:39:54,0.003,0.0,0.0,0.0
20/11/2022,07:40:53,0.004,0.0,0.0,0.0
20/11/2022,07:41:53,0.004,0.0,0.0,0.0
20/11/2022,07:42:52,0.004,0.0,0.0,0.0
20/11/2022,07:43:52,0.004,0.0,0.0,0.0
20/11/2022,07:44:53,0.004,0.0,0.0,0.0
20/11/2022,07:45:52,0.005,0.0,0.0,0.0
20/11/2022,07:46:52,0.004,0.0,0.0,0.0
20/11/2022,07:47:53,0.005,0.0,0.0,0.0
20/11/2022,07:48:52,0.005,0.0,0.0,0.0
20/11/2022,07:49:53,0.006,0.0,0.0,0.0
20/11/2022,07:50:52,0.006,0.0,0.0,0.0
20/11/2022,07:51:53,0.007,0.0,0.0,0.0
20/11/2022,07:52:53,0.006,0.0,0.0,0.0
20/11/2022,07:53:53,0.008,0.0,0.0,0.0
20/11/2022,07:54:53,0.006,0.0,0.0,0.0
20/11/2022,07:55:53,0.006,0.0,0.001,0.001
20/11/2022,07:56:53,0.007,0.0,0.001,0.0
20/11/2022,07:57:53,0.008,0.0,0.001,0.0
20/11/2022,07:58:53,0.009,0.0,0.001,0.0
20/11/2022,07:59:53,0.009,0.0,0.001,0.0
20/11/2022,08:00:53,0.009,0.0,0.001,0.0
20/11/2022,08:01:53,0.010,0.0,0.001,0.0
20/11/2022,08:02:53,0.010,0.0,0.002,0.001
20/11/2022,08:03:52,0.010,0.0,0.002,0.0
20/11/2022,08:04:53,0.011,0.0,0.002,0.0
20/11/2022,08:05:53,0.011,0.0,0.002,0.0
20/11/2022,08:06:52,0.012,0.0,0.002,0.0
20/11/2022,08:07:52,0.012,0.0,0.002,0.0
20/11/2022,08:08:53,0.012,0.0,0.003,0.001
20/11/2022,08:09:52,0.013,0.0,0.003,0.0
20/11/2022,08:10:53,0.013,0.0,0.003,0.0
20/11/2022,08:11:53,0.013,0.0,0.003,0.0
20/11/2022,08:12:53,0.015,0.0,0.004,0.001
20/11/2022,08:13:53,0.014,0.0,0.004,0.0
20/11/2022,08:14:53,0.016,0.0,0.004,0.0
20/11/2022,08:15:53,0.014,0.0,0.004,0.0
20/11/2022,08:16:53,0.015,0.0,0.005,0.001
20/11/2022,08:17:52,0.017,0.0,0.005,0.0
20/11/2022,08:18:52,0.017,0.0,0.005,0.0
20/11/2022,08:19:53,0.018,0.0,0.005,0.0
20/11/2022,08:20:53,0.018,0.0,0.006,0.001
20/11/2022,08:21:53,0.019,0.0,0.006,0.0
20/11/2022,08:22:53,0.020,0.0,0.006,0.0
20/11/2022,08:23:53,0.019,0.0,0.007,0.001
20/11/2022,08:24:53,0.020,0.0,0.007,0.0
20/11/2022,08:25:52,0.021,0.0,0.007,0.0
20/11/2022,08:26:53,0.021,0.0,0.008,0.001
20/11/2022,08:27:53,0.022,0.0,0.008,0.0
20/11/2022,08:28:53,0.021,0.0,0.008,0.0
20/11/2022,08:29:53,0.023,0.0,0.009,0.001
20/11/2022,08:30:52,0.025,0.0,0.009,0.0
20/11/2022,08:31:52,0.025,0.0,0.01,0.001
20/11/2022,08:32:53,0.026,0.0,0.01,0.0
20/11/2022,08:33:53,0.026,0.0,0.01,0.0
20/11/2022,08:34:52,0.027,0.0,0.011,0.001
20/11/2022,08:35:53,0.028,0.0,0.011,0.0
20/11/2022,08:36:52,0.029,0.0,0.012,0.001
20/11/2022,08:37:53,0.029,0.0,0.012,0.0
20/11/2022,08:38:53,0.030,0.0,0.013,0.001
20/11/2022,08:39:53,0.031,0.0,0.013,0.0
20/11/2022,08:40:52,0.031,0.0,0.014,0.001
20/11/2022,08:41:53,0.032,0.0,0.014,0.0
20/11/2022,08:42:52,0.032,0.0,0.015,0.001
20/11/2022,08:43:52,0.034,0.0,0.015,0.0
20/11/2022,08:44:53,0.035,0.0,0.016,0.001
20/11/2022,08:45:53,0.036,0.0,0.017,0.001
20/11/2022,08:46:53,0.036,0.0,0.017,0.0
20/11/2022,08:47:52,0.037,0.0,0.018,0.001
20/11/2022,08:48:52,0.038,0.0,0.018,0.0
20/11/2022,08:49:53,0.039,0.0,0.019,0.001
20/11/2022,08:50:52,0.040,0.0,0.02,0.001
20/11/2022,08:51:53,0.040,0.0,0.02,0.0
20/11/2022,08:52:53,0.042,0.0,0.021,0.001
20/11/2022,08:53:52,0.043,0.0,0.022,0.001
20/11/2022,08:54:53,0.042,0.0,0.023,0.001
20/11/2022,08:55:53,0.043,0.0,0.023,0.0
20/11/2022,08:56:53,0.045,0.0,0.024,0.001
20/11/2022,08:57:53,0.046,0.0,0.025,0.001
20/11/2022,08:58:53,0.046,0.0,0.026,0.001
20/11/2022,08:59:53,0.047,0.0,0.026,0.0
20/11/2022,09:00:53,0.049,0.0,0.027,0.001
20/11/2022,09:01:53,0.049,0.0,0.028,0.001
20/11/2022,09:02:52,0.051,0.0,0.029,0.001
20/11/2022,09:03:53,0.053,0.0,0.03,0.001
20/11/2022,09:04:53,0.054,0.0,0.031,0.001
20/11/2022,09:05:53,0.056,0.0,0.031,0.0
20/11/2022,09:06:52,0.056,0.0,0.032,0.001
20/11/2022,09:07:53,0.058,0.0,0.033,0.001
20/11/2022,09:08:52,0.059,0.0,0.034,0.001
20/11/2022,09:09:53,0.060,0.0,0.035,0.001
20/11/2022,09:10:52,0.061,0.0,0.036,0.001
20/11/2022,09:11:53,0.062,0.0,0.037,0.001
20/11/2022,09:12:53,0.063,0.0,0.038,0.001
20/11/2022,09:13:54,0.065,0.0,0.039,0.001
20/11/2022,09:14:53,0.064,0.0,0.041,0.002
20/11/2022,09:15:53,0.066,0.0,0.042,0.001
20/11/2022,09:16:53,0.068,0.0,0.043,0.001
20/11/2022,09:17:53,0.069,0.0,0.044,0.001
20/11/2022,09:18:53,0.071,0.0,0.045,0.001
20/11/2022,09:19:53,0.071,0.0,0.046,0.001
20/11/2022,09:20:53,0.072,0.0,0.047,0.001
20/11/2022,09:21:53,0.073,0.0,0.049,0.002
20/11/2022,09:22:52,0.074,0.0,0.05,0.001
20/11/2022,09:23:53,0.076,0.0,0.051,0.001
20/11/2022,09:24:53,0.077,0.0,0.052,0.001
20/11/2022,09:25:53,0.078,0.0,0.054,0.002
20/11/2022,09:26:53,0.079,0.0,0.055,0.001
20/11/2022,09:27:53,0.080,0.0,0.056,0.001
20/11/2022,09:28:53,0.081,0.0,0.058,0.002
20/11/2022,09:29:53,0.082,0.0,0.059,0.001
20/11/2022,09:30:53,0.084,0.0,0.06,0.001
20/11/2022,09:31:53,0.085,0.0,0.062,0.002
20/11/2022,09:32:53,0.086,0.0,0.063,0.001
20/11/2022,09:33:53,0.087,0.0,0.065,0.002
20/11/2022,09:34:53,0.087,0.0,0.066,0.001
20/11/2022,09:35:53,0.087,0.0,0.068,0.002
20/11/2022,09:36:53,0.087,0.0,0.069,0.001
20/11/2022,09:37:53,0.086,0.0,0.07,0.001
20/11/2022,09:38:53,0.091,0.0,0.072,0.002
20/11/2022,09:39:53,0.091,0.0,0.073,0.001
20/11/2022,09:40:53,0.095,0.0,0.075,0.002
20/11/2022,09:41:53,0.095,0.0,0.077,0.002
20/11/2022,09:42:53,0.097,0.0,0.078,0.001
20/11/2022,09:43:53,0.099,0.0,0.08,0.002
20/11/2022,09:45:54,0.102,0.0,0.083,0.003
20/11/2022,09:46:52,0.103,0.0,0.085,0.002
20/11/2022,09:47:53,0.105,0.0,0.087,0.002
20/11/2022,09:48:52,0.106,0.0,0.088,0.001
20/11/2022,09:49:53,0.108,0.0,0.09,0.002
20/11/2022,09:50:53,0.109,0.0,0.092,0.002
20/11/2022,09:51:53,0.110,0.0,0.094,0.002
20/11/2022,09:52:53,0.111,0.0,0.096,0.002
20/11/2022,09:53:53,0.112,0.0,0.097,0.001
20/11/2022,09:54:52,0.114,0.0,0.099,0.002
20/11/2022,09:55:53,0.115,0.0,0.101,0.002
20/11/2022,09:56:53,0.117,0.0,0.103,0.002
20/11/2022,09:57:53,0.118,0.0,0.105,0.002
20/11/2022,09:58:53,0.119,0.0,0.107,0.002
20/11/2022,09:59:53,0.121,0.0,0.109,0.002
20/11/2022,10:00:53,0.121,0.0,0.111,0.002
20/11/2022,10:01:53,0.123,0.0,0.113,0.002
20/11/2022,10:02:52,0.123,0.0,0.115,0.002
20/11/2022,10:03:53,0.125,0.0,0.117,0.002
20/11/2022,10:04:52,0.127,0.0,0.119,0.002
20/11/2022,10:05:53,0.127,0.0,0.121,0.002
20/11/2022,10:06:52,0.128,0.0,0.124,0.003
20/11/2022,10:07:53,0.130,0.0,0.126,0.002
20/11/2022,10:08:53,0.131,0.0,0.128,0.002
20/11/2022,10:09:53,0.133,0.0,0.13,0.002
20/11/2022,10:10:53,0.134,0.0,0.132,0.002
20/11/2022,10:11:53,0.135,0.0,0.135,0.003
20/11/2022,10:12:53,0.136,0.0,0.137,0.002
20/11/2022,10:13:53,0.137,0.0,0.139,0.002
20/11/2022,10:14:53,0.139,0.0,0.141,0.002
20/11/2022,10:15:53,0.139,0.0,0.144,0.003
20/11/2022,10:16:53,0.140,0.0,0.146,0.002
20/11/2022,10:17:53,0.141,0.0,0.148,0.002